Regional Weather Roundup
Issued by NWS

Home | Current Version | Previous Version | Text Only | Print | Product List | Glossary On
Versions: 1 2 3 4 5 6 7 8 9 10 11 12 13 14 15 16 17 18 19 20 21 22 23 24 25 26 27 28 29 30 31 32 33 34 35 36 37 38 39 40 41 42 43 44 45 46 47 48 49 50
340
ASUS43 KLOT 020308
RWRIL

ILLINOIS REGIONAL WEATHER ROUNDUP
NATIONAL WEATHER SERVICE CHICAGO/ROMEOVILLE IL
1000 PM CDT FRI JUL 01 2016

NOTE: "FAIR" INDICATES FEW OR NO CLOUDS BELOW 12,000 FEET WITH NO
SIGNIFICANT WEATHER AND/OR OBSTRUCTIONS TO VISIBILITY.

* THESE STATIONS ARE NOT UNDER NWS QUALITY CONTROL. THEY ALSO MAY NOT
  REPORT WEATHER SUCH AS PRECIPITATION OR FOG.

ILZ001-002-007-009-015-016-024-020400-
NORTHWEST ILLINOIS

CITY           SKY/WX    TMP DP  RH WIND       PRES   REMARKS
MOLINE         MOCLDY    66  57  72 CALM      30.14R
STERLING*      PTCLDY    62  56  80 CALM      30.15R
SAVANNA*       MOCLDY    61  57  88 CALM      30.15R
$$

ILZ003-004-008-010-011-017-018-020400-
NORTH CENTRAL ILLINOIS

CITY           SKY/WX    TMP DP  RH WIND       PRES   REMARKS
ROCKFORD       CLOUDY    64  51  62 E8        30.17R
FREEPORT*      PTCLDY    59  52  76 CALM      30.16S
ROCHELLE*      MOCLDY    62  54  75 E5        30.16R
DE KALB*       CLOUDY    59  51  73 E7        30.17R
$$

ILZ005-006-012>014-019>023-020400-
NORTHEAST ILLINOIS

CITY           SKY/WX    TMP DP  RH WIND       PRES   REMARKS
CHICAGO-OHARE  CLOUDY    64  47  53 E3        30.15R
CHICAGO-MIDWAY PTCLDY    67  41  38 NE7       30.15R
AURORA         MOCLDY    61  50  67 E6        30.16R
LANSING*       CLEAR     63  42  46 NE3       30.16R
JOLIET*        PTCLDY    63  49  61 CALM      30.16R
WAUKEGAN       CLEAR     54  50  86 CALM      30.14R
DUPAGE AIRPORT PTCLDY    62  46  55 CALM      30.16R
KANKAKEE*      CLOUDY    59  51  74 NE3       30.17R
WHEELING       CLOUDY    60  49  66 CALM      30.16R
MORRIS*        CLOUDY    60  52  75 E5        30.16R
ROMEOVILLE*    CLOUDY    60  46  59 E6        30.16R
NORTHERLY ISL    N/A     65  43  44 NE8         N/A
$$

LMZ740>746-020400-
SOUTHERN LAKE MICHIGAN

STATION/POSITION SKY/WX   TEMP    WIND        PRES    VSBY  WAVE
                          AIR SEA DIR/SP/G                  HT/PER
                          (F)     (DEG/KT/KT) (MB)    (MI)  (FT/S)
SOUTHERN BUOY              61 63  240/  4/  4 1020.4R         3/ 7
WILMETTE HARBOR            67 68   50/  4/  6   N/A           4/ 6
HARRISON CRIB              68      30/ 12/ 13   N/A
BURNHAM HARBOR             65      50/  8/ 13   N/A
CALUMET HARBOR             66                 1020.1R
BURNS HARBOR               65      20/ 12/ 19 1021.0R
MICHIGAN CITY              63     350/ 16/ 18   N/A
MICHIGAN CITY 6N           65 69   10/ 12/ 17   N/A           5/ 6
ST. JOSEPH                 65 66  360/ 12/ 16   N/A           5/ 6
$$

ILZ025>027-034>036-040-047-049-050-058-095>099-020400-
WEST-CENTRAL ILLINOIS

CITY           SKY/WX    TMP DP  RH WIND       PRES   REMARKS
QUINCY         CLEAR     65  56  72 NE6       30.11R
GALESBURG*     CLEAR     61  57  87 CALM      30.14R
MACOMB*        PTCLDY    62  58  88 NE5       30.15R
JACKSONVILLE*  CLEAR     66  56  70 NE5       30.11S
PITTSFIELD*    CLEAR     68  58  70 NE3       30.12R
$$

ILZ028>032-037-038-041>044-048-051>054-059>061-020400-
CENTRAL ILLINOIS

CITY           SKY/WX    TMP DP  RH WIND       PRES   REMARKS
PONTIAC        CLEAR     62  59  89 E7        30.16R
BLOOMINGTON    CLEAR     67  55  65 N7        30.15R
DECATUR        MOCLDY    68  55  63 N6        30.13R
PEORIA         CLEAR     65  56  72 CALM      30.13R
LACON*         CLEAR     60  56  84 CALM      30.13R
LINCOLN*       CLEAR     66  56  71 CALM      30.13R
SPRINGFIELD    CLEAR     66  57  72 N7        30.12R
TAYLORVILLE    CLEAR     63  56  78 N7        30.12R
$$

ILZ033-039-045-046-055>057-062-063-020400-
EAST-CENTRAL ILLINOIS

CITY           SKY/WX    TMP DP  RH WIND       PRES   REMARKS
CHAMPAIGN      CLEAR     64  56  75 NE8       30.13R
RANTOUL*       PTCLDY    66  57  73 NE8       30.14R
MATTOON        PTCLDY    66  56  70 CALM      30.11R
PARIS*         CLEAR     64  55  74 CALM      30.13R
$$

ILZ079-100>102-020400-
SOUTHWEST ILLINOIS

CITY           SKY/WX    TMP DP  RH WIND       PRES   REMARKS
ALTON          PTCLDY    66  61  82 NE9       30.09R
CAHOKIA*       CLEAR     71  58  63 NE6       30.08R
SPARTA*        CLEAR     71  58  64 N5        30.09R
$$

ILZ064>066-069>071-074>076-080>082-084>086-088>090-092>094-020400-
SOUTH-CENTRAL ILLINOIS

CITY           SKY/WX    TMP DP  RH WIND       PRES   REMARKS
CARBONDALE     CLEAR     74  55  51 N7        30.06R
CAIRO*         CLEAR     71  65  81 CALM      30.06R
EFFINGHAM*     PTCLDY    69  58  66 N3        30.12R
MARION         CLEAR     72  59  64 N3        30.07R
MT. VERNON     CLEAR     64  55  72 N3        30.09R
CENTRALIA*     CLEAR     72  58  62 N5        30.08R
SALEM*         CLEAR     70  58  66 N5        30.09R
METROPOLIS*    CLEAR     70  66  86 CALM      30.06R
$$

ILZ067-068-072-073-078-083-087-091-020400-
SOUTHEAST ILLINOIS

CITY           SKY/WX    TMP DP  RH WIND       PRES   REMARKS
LAWRENCEVILLE  CLEAR     69  58  67 NE10      30.09R
FLORA*         CLEAR     71  57  61 N5        30.09R
FAIRFIELD*     CLEAR     68  58  70 N3        30.07R
HARRISBURG*    CLEAR     72  59  63 N6        30.07R
ROBINSON*      CLEAR     66  57  73 NE8       30.10R
CARMI*         CLEAR     68  59  73 N5        30.06S
$$

ABBREVIATIONS USED IN REMARKS
   TC - TEMPERATURE IN CELSIUS
  WCI - WIND CHILL INDEX
   HX - HEAT INDEX
  VSB - VISIBILITY
$$





USA.gov is the U.S. government's official web portal to all federal, state and local government web resources and services.